Flag for Canada Weather past 2 weeks in Qikiqtarjuaq, Nunavut Territory, Canada

Now
19 °F

Light snow. Partly sunny.


Feels Like: 14 °F
Forecast: 14 / 17 °F
Wind: 3 mph from Southeast

Location: Broughton Island Airport

Current Time: Oct 25, 2014 at 2:08:48 PM

Latest Report: Oct 25, 2014 at 1:00 PM


Visibility: 10 mi

Pressure: 30.07 "Hg

Humidity: 73%

Dew point: 12 °F

Location of QikiqtarjuaqLocation

Historic Weather in Qikiqtarjuaq — Graph

°F

Qikiqtarjuaq temperature yesterday

Maximum temperature yesterday: 27 °F (at 12:00 PM)
Minimum temperature yesterday: 16 °F (at 12:00 AM)
Average temperature yesterday: 22 °F

Past Weeks' High & Low Weather Summary

 TemperatureHumidityPressure
High36 °F (Oct 11, 1:00 PM)100% (Oct 11, 6:00 PM)30.08 "Hg (Oct 11, 6:00 PM)
Low16 °F (Oct 23, 5:00 PM)41% (Oct 23, 5:00 PM)29.36 "Hg (Oct 12, 2:59 AM)
Average27 °F77%29.76 "Hg
* Reported Oct 10 1:00 PM — Oct 25 1:00 PM, Qikiqtarjuaq, Weather by CustomWeather, © 2014

Note: Actual official high and low records may vary slightly from our data, if they occured in-between our weather recording intervals... More about our weather records

Advertising

Qikiqtarjuaq weather history for previous 24 hours

 ConditionsComfort  
Time TempWeatherWind HumidityBarometerVisibility
1:00 PM
Oct 25
19 °FLight snow. Partly sunny.3 mph73%30.07 "Hg10 mi
12:00 PM19 °FLight snow. Partly sunny.6 mph79%30.08 "Hg10 mi
11:00 AM19 °FLight snow. Overcast.3 mph73%30.07 "Hg10 mi
10:00 AM19 °FLight snow. Overcast.7 mph73%30.07 "Hg8 mi
9:00 AM21 °FOvercast.9 mph63%30.06 "Hg15 mi
8:00 AM18 °FOvercast.No wind62%30.06 "Hg15 mi
7:50 AM18 °FLight snow. Overcast.2 mph62%30.06 "Hg9 mi
7:00 AM18 °FMostly cloudy.3 mph58%30.05 "Hg9 mi
6:00 AM18 °FOvercast.12 mph62%30.04 "Hg9 mi
5:00 AM18 °FOvercast.12 mph58%30.04 "Hg9 mi
4:00 AM16 °FPassing clouds.5 mph57%30.04 "Hg9 mi
3:00 AM18 °FPassing clouds.10 mph68%30.04 "Hg9 mi
2:00 AM18 °FOvercast.15 mph62%30.02 "Hg9 mi
1:00 AM19 °FOvercast.13 mph63%30.01 "Hg9 mi
12:00 AM19 °FOvercast.17 mph68%29.99 "Hg9 mi
11:00 PM
Oct 24
21 °FOvercast.24 mph68%29.98 "Hg9 mi
10:00 PM23 °FPassing clouds.23 mph63%29.97 "Hg9 mi
9:00 PM23 °FMostly cloudy.18 mph63%29.97 "Hg9 mi
8:54 PM23 °FOvercast.17 mph63%29.96 "Hg9 mi
8:00 PM19 °FPassing clouds.No wind79%29.96 "Hg9 mi
7:00 PM18 °FClear.8 mph79%29.95 "Hg9 mi
6:00 PM19 °FClear.7 mph73%29.95 "Hg9 mi
5:00 PM23 °FPassing clouds.3 mph68%29.96 "Hg15 mi
4:00 PM25 °FPassing clouds.10 mph74%29.94 "Hg15 mi
3:00 PM25 °FLight snow. Partly sunny.15 mph74%29.93 "Hg10 mi
2:00 PM27 °FLight snow. Partly sunny.21 mph64%29.91 "Hg10 mi
Weather by CustomWeather, © 2014

See weather overviewHow to use our weather pages